Volver al catálogo

STARLINK-32866

ActivoComunicacionesVLEO
NORAD 62858·PAYLOAD·🇺🇸 United States

Lanzado Feb 1, 2025 desde Vandenberg Space Force Base

Loading…

Próximos Pases (próximas 24 horas)

TLE

ActualizadoSource: CelesTrak SupGP

Época: Sep 15, 2026, 03:08 UTC

1 62858C 25022E   26258.13104167  .00049181  00000+0  14526-2 0  2586
2 62858  53.1586 325.1632 0001225  88.2739  71.8211 15.34376562    11

Sigue STARLINK-32866 en tiempo real con AllMySat

Download on the App Store